Location: Jonen
(52.7189°N, 6.0177°E)
Time: 17:08:59
(UTC+00:00)

ISS - Visible Passes

Search period start: 13 May 2026 00:00
Search period end: 23 May 2026 00:00
Orbit: 414 x 424 km, 51.6° (Epoch: 13 May)

Date Brightness Start Highest point End Pass type
(mag) Time Alt. Az. Time Alt. Az. Time Alt. Az.
13 May -3.9 21:21:10 10° W 21:24:30 75° S 21:27:26 13° E visible
13 May -3.0 22:57:55 10° W 23:00:22 38° WSW 23:00:22 38° WSW visible
14 May -3.8 20:33:33 10° WSW 20:36:52 72° S 20:40:14 10° E visible
14 May -3.8 22:10:17 10° W 22:13:35 58° SSW 22:14:19 45° SE visible
15 May -3.8 21:22:38 10° W 21:25:58 68° S 21:28:15 19° ESE visible
15 May -2.1 22:59:32 10° W 23:01:10 21° WSW 23:01:10 21° WSW visible
16 May -3.8 20:34:58 10° W 20:38:19 74° S 20:41:40 10° E visible
16 May -3.2 22:11:47 10° W 22:14:55 37° SSW 22:15:06 37° SSW visible
17 May -3.4 21:24:05 10° W 21:27:20 47° SSW 21:29:01 24° SE visible
17 May -1.2 23:01:33 10° WSW 23:01:57 12° WSW 23:01:57 12° WSW visible
18 May -3.6 20:36:24 10° W 20:39:42 58° SSW 20:42:56 10° ESE visible
18 May -2.2 22:13:29 10° W 22:15:52 21° SW 22:15:52 21° SW visible
19 May -2.6 21:25:37 10° W 21:28:32 28° SSW 21:29:48 22° S visible
20 May -3.0 20:37:49 10° W 20:40:57 37° SSW 20:43:45 12° SE visible
20 May -1.2 22:16:22 10° SW 22:16:41 10° SW 22:16:41 10° SW visible
21 May -1.7 21:27:32 10° WSW 21:29:34 15° SW 21:30:40 13° SSW visible
22 May -2.0 20:39:26 10° W 20:42:02 21° SSW 20:44:38 10° SSE visible
